Weather History for KUUU - December, 2012

Change the Weather History Date:

Monday, December 3, 2012

  Actual Average Record
Temperature  
Mean Temperature 48 °F -  
Max Temperature 57 °F 47 °F 60 °F (1986)
Min Temperature 37 °F 30 °F 9 °F (1976)
Degree Days  
Heating Degree Days 17    
Moisture  
Dew Point 43 °F    
Average Humidity 80    
Maximum Humidity 94    
Minimum Humidity 53    
Precipitation  
Precipitation 0.00 in - - ()
Sea Level Pressure  
Sea Level Pressure 30.14 in    
Wind  
Wind Speed 5 mph (WNW)    
Max Wind Speed 9 mph    
Max Gust Speed 18 mph    
Visibility 9 miles    
Events      
Averages and records for this station are not official NWS values.
T = Trace of Precipitation, MM = Missing Value Source: NWS Daily Summary

Daily Weather History Graph

Daily Weather History Graph

Search for Another Location

Airport or City:

Trip Planner

Search our weather history database for the weather conditions in past years. The results will help you decide how hot, cold, wet, or windy it might be!

Date:

Astronomy

Dec. 03, 2012 Rise Set
Actual Time 6:54 AM EST 4:15 PM EST
Civil Twilight 6:23 AM EST 4:46 PM EST
Nautical Twilight 5:49 AM EST 5:21 PM EST
Astronomical Twilight 5:15 AM EST 5:54 PM EST
Moon 9:01 PM EST (12/3) 10:14 AM EST (12/3)
Length of Visible Light 10h 22m
Length of Day
9h 20m
Waning Gibbous, 78% of the Moon is Illuminated
Dec 3
Waning Gibbous
Dec 6
Last Quarter
Dec 13
New
Dec 20
First Quarter
Dec 28
Full

Hourly Weather History & Observations

Time (EST) Temp. Windchill Dew Point Humidity Pressure Visibility Wind Dir Wind Speed Gust Speed Precip Events Conditions
12:26 AM 53.6 °F - 48.2 °F 82% 30.08 in 10.0 mi Variable 5.8 mph 16.1 mph N/A   Overcast
12:53 AM 52.0 °F - 48.0 °F 86% 30.07 in 10.0 mi Variable 5.8 mph - N/A   Overcast
1:14 AM 51.8 °F - 46.4 °F 82% 30.06 in 10.0 mi SW 6.9 mph - N/A   Overcast
1:32 AM 51.8 °F - 46.4 °F 82% 30.05 in 9.0 mi SSW 8.1 mph 18.4 mph N/A   Mostly Cloudy
1:43 AM 50.0 °F - 48.2 °F 94% 30.06 in 8.0 mi SSW 6.9 mph - N/A   Mostly Cloudy
1:53 AM 51.1 °F - 48.0 °F 89% 30.06 in 7.0 mi Variable 6.9 mph - N/A   Mostly Cloudy
2:53 AM 51.1 °F - 48.0 °F 89% 30.07 in 8.0 mi Variable 5.8 mph - N/A   Overcast
3:53 AM 51.1 °F - 48.0 °F 89% 30.06 in 7.0 mi Variable 3.5 mph - N/A   Overcast
4:38 AM 50.0 °F - 46.4 °F 87% 30.06 in 7.0 mi Variable 3.5 mph - N/A   Mostly Cloudy
4:53 AM 50.0 °F - 46.0 °F 86% 30.08 in 6.0 mi West 6.9 mph - N/A   Mostly Cloudy
5:53 AM 48.9 °F - 46.0 °F 90% 30.10 in 5.0 mi West 4.6 mph - N/A   Mostly Cloudy
6:53 AM 46.9 °F - 45.0 °F 93% 30.11 in 4.0 mi West 3.5 mph - N/A   Clear
7:53 AM 48.0 °F - 46.0 °F 93% 30.13 in 3.0 mi West 6.9 mph - N/A   Clear
8:53 AM 51.1 °F - 46.0 °F 83% 30.14 in 6.0 mi WNW 8.1 mph - N/A   Haze
10:53 AM 55.0 °F - 43.0 °F 64% 30.14 in 10.0 mi WNW 9.2 mph - N/A   Clear
11:53 AM 55.9 °F - 43.0 °F 62% 30.13 in 10.0 mi WNW 6.9 mph - N/A   Clear
12:53 PM 57.9 °F - 42.1 °F 56% 30.14 in 10.0 mi NW 8.1 mph - N/A   Clear
1:53 PM 57.9 °F - 41.0 °F 53% 30.13 in 10.0 mi NW 8.1 mph - N/A   Clear
2:53 PM 57.9 °F - 41.0 °F 53% 30.15 in 10.0 mi NNW 3.5 mph - N/A   Clear
3:53 PM 55.0 °F - 39.9 °F 57% 30.17 in 10.0 mi Calm Calm - N/A   Clear
4:53 PM 48.0 °F - 39.0 °F 71% 30.19 in 10.0 mi Calm Calm - N/A   Clear
5:53 PM 43.0 °F - 37.9 °F 82% 30.22 in 10.0 mi Calm Calm - N/A   Clear
6:53 PM 39.9 °F - 36.0 °F 86% 30.24 in 10.0 mi Calm Calm - N/A   Clear
7:53 PM 42.1 °F - 37.0 °F 82% 30.25 in 10.0 mi Calm Calm - N/A   Clear
8:53 PM 41.0 °F - 37.0 °F 86% 30.26 in 10.0 mi Calm Calm - N/A   Clear
9:53 PM 41.0 °F 39.0 °F 37.0 °F 86% 30.27 in 10.0 mi North 3.5 mph - N/A   Clear
10:53 PM 42.1 °F 40.2 °F 37.9 °F 85% 30.27 in 10.0 mi North 3.5 mph - N/A   Clear
11:53 PM 37.9 °F - 35.1 °F 89% 30.28 in 10.0 mi Calm Calm - N/A   Clear